sat.trackr.live / text

‹ back to catalog

STARLINK-34553

NORAD 64681 · 2025-139T

PAYLOAD ACTIVE UNKNOWN

§ Identity

Operator
Country
US
Launch date
2025-06-28
Launch site
AFETR
Launch vehicle
Mass (kg)
RCS (m²)

Purposes: comms

External: N2YO · Heavens-Above · Gunter

§ Orbital elements

Epoch: 2026-09-20T19:20:48.404256Z

Period
93.85 min
Inclination
53.1595°
Eccentricity
0.0001122
Mean motion
15.34395741 rev/d
Perigee alt
461.9 km
Apogee alt
463.5 km
Semi-major
6,840.9 km
B*
4.1401e-4
RAAN
296.0352°
Arg perigee
92.5616°
Mean anomaly
267.5515°
Rev number
7,022

§ Raw data

STARLINK-345531 64681U 25139T   26263.80611579  .00013635  00000+0  41401-3 0  99912 64681  53.1595 296.0352 0001122  92.5616 267.5515 15.34395741 70221

JSON: /api/v1/satellites/64681 · /tle

For live sub-satellite position, see the globe view (requires WebGL).

§ Visibility from observer

Set your observer location to see the next 7 days of passes ≥ 10°. The values pass through the URL so the page stays shareable.

No JS? Fill the form by hand. The geolocation button needs JavaScript.